| time (UTC) | temp C | wind direction | speed KPH | gust KPH | rain 1hr cm | rain 24hr cm | rain mn cm | humidity % | barometer mb |
| 20260503054518 | 2 | 0 | 0.0 | 4.8 | 0.00 | 0.00 | 0.00 | 56 | 1020.5 |
| 20260503052339 | 2 | 0 | 0.0 | 0.0 | 0.00 | 0.00 | 0.00 | 56 | 1020.5 |
| 20260503051314 | 2 | 0 | 0.0 | 0.0 | 0.00 | 0.00 | 0.00 | 56 | 1020.4 |
| 20260503050325 | 2 | 0 | 0.0 | 0.0 | 0.00 | 0.00 | 0.00 | 56 | 1020.5 |
| 20260503045322 | 2 | 0 | 0.0 | 0.0 | 0.00 | 0.00 | 0.00 | 56 | 1020.6 |
| 20260503044257 | 2 | 0 | 0.0 | 0.0 | 0.00 | 0.00 | 0.00 | 56 | 1020.5 |
| 20260503043241 | 2 | 0 | 0.0 | 0.0 | 0.00 | 0.00 | 0.00 | 56 | 1020.4 |
| 20260503042229 | 2 | 0 | 0.0 | 0.0 | 0.00 | 0.00 | 0.00 | 55 | 1020.4 |
| 20260503041155 | 2 | 0 | 0.0 | 0.0 | 0.00 | 0.00 | 0.00 | 55 | 1020.5 |
| 20260503040207 | 3 | 0 | 0.0 | 0.0 | 0.00 | 0.00 | 0.00 | 54 | 1020.6 |
| 20260503035222 | 3 | 0 | 0.0 | 0.0 | 0.00 | 0.00 | 0.00 | 54 | 1020.7 |
| 20260503034236 | 3 | 0 | 0.0 | 0.0 | 0.00 | 0.00 | 0.00 | 53 | 1020.7 |
| 20260503033238 | 3 | 0 | 0.0 | 0.0 | 0.00 | 0.00 | 0.00 | 53 | 1020.7 |
| 20260503031103 | 4 | 0 | 0.0 | 0.0 | 0.00 | 0.00 | 0.00 | 55 | 1020.8 |
| 20260503030113 | 4 | 0 | 0.0 | 0.0 | 0.00 | 0.00 | 0.00 | 53 | 1020.7 |
| 20260503024012 | 4 | 0 | 0.0 | 0.0 | 0.00 | 0.00 | 0.00 | 52 | 1020.8 |
| 20260503022950 | 4 | 0 | 0.0 | 0.0 | 0.00 | 0.00 | 0.00 | 51 | 1020.9 |
| 20260503021929 | 4 | 0 | 0.0 | 1.6 | 0.00 | 0.00 | 0.00 | 51 | 1021.1 |
| 20260503020953 | 4 | 0 | 0.0 | 1.6 | 0.00 | 0.00 | 0.00 | 51 | 1021.0 |
| 20260503020013 | 4 | 0 | 0.0 | 1.6 | 0.00 | 0.00 | 0.00 | 51 | 1021.0 |
| 20260503015021 | 4 | 0 | 0.0 | 0.0 | 0.00 | 0.00 | 0.00 | 49 | 1020.9 |
| 20260503014035 | 4 | 0 | 0.0 | 0.0 | 0.00 | 0.00 | 0.00 | 50 | 1020.7 |
| 20260503013021 | 5 | 0 | 0.0 | 0.0 | 0.00 | 0.00 | 0.00 | 48 | 1020.6 |
| 20260503012040 | 5 | 0 | 0.0 | 0.0 | 0.00 | 0.00 | 0.00 | 46 | 1020.6 |
| 20260503011032 | 6 | 0 | 0.0 | 0.0 | 0.00 | 0.00 | 0.00 | 45 | 1020.6 |
| 20260503010045 | 6 | 0 | 0.0 | 0.0 | 0.00 | 0.00 | 0.00 | 44 | 1020.5 |
| 20260503003916 | 6 | 0 | 0.0 | 0.0 | 0.00 | 0.00 | 0.00 | 43 | 1020.4 |
| 20260503002910 | 7 | 0 | 0.0 | 0.0 | 0.00 | 0.00 | 0.00 | 44 | 1020.5 |
| 20260503001845 | 7 | 0 | 0.0 | 1.6 | 0.00 | 0.00 | 0.00 | 41 | 1020.3 |
| 20260503000824 | 7 | 0 | 0.0 | 11.3 | 0.00 | 0.00 | 0.00 | 41 | 1020.4 |
| 20260502235803 | 7 | 0 | 0.0 | 6.4 | 0.00 | 0.00 | 0.00 | 41 | 1020.3 |
| 20260502234751 | 7 | 0 | 0.0 | 0.0 | 0.00 | 0.00 | 0.00 | 40 | 1020.3 |
| 20260502233731 | 7 | 0 | 3.2 | 12.9 | 0.00 | 0.00 | 0.00 | 38 | 1020.2 |
| 20260502231529 | 7 | 0 | 3.2 | 11.3 | 0.00 | 0.00 | 0.00 | 40 | 1020.2 |
| 20260502230553 | 7 | 0 | 0.0 | 6.4 | 0.00 | 0.00 | 0.00 | 40 | 1020.2 |
| 20260502225539 | 7 | 0 | 1.6 | 12.9 | 0.00 | 0.00 | 0.00 | 38 | 1020.2 |
| 20260502224552 | 7 | 0 | 3.2 | 14.5 | 0.00 | 0.00 | 0.00 | 36 | 1020.2 |
| 20260502223557 | 7 | 0 | 4.8 | 14.5 | 0.00 | 0.00 | 0.00 | 36 | 1020.1 |
| 20260502222545 | 7 | 0 | 3.2 | 14.5 | 0.00 | 0.00 | 0.00 | 37 | 1020.2 |
| 20260502221608 | 7 | 0 | 4.8 | 14.5 | 0.00 | 0.00 | 0.00 | 35 | 1020.2 |
| 20260502220617 | 7 | 0 | 1.6 | 8.0 | 0.00 | 0.00 | 0.00 | 36 | 1020.2 |
| 20260502215547 | 8 | 0 | 3.2 | 12.9 | 0.00 | 0.00 | 0.00 | 36 | 1020.1 |
| 20260502214519 | 8 | 0 | 3.2 | 12.9 | 0.00 | 0.00 | 0.00 | 35 | 1020.0 |
| 20260502213529 | 8 | 0 | 1.6 | 4.8 | 0.00 | 0.00 | 0.00 | 37 | 1019.9 |
| 20260502212544 | 8 | 0 | 4.8 | 12.9 | 0.00 | 0.00 | 0.00 | 35 | 1020.0 |
| 20260502211543 | 8 | 0 | 3.2 | 12.9 | 0.00 | 0.00 | 0.00 | 37 | 1020.0 |
| 20260502210605 | 8 | 0 | 1.6 | 16.1 | 0.00 | 0.00 | 0.00 | 37 | 1019.8 |
| 20260502205557 | 8 | 0 | 4.8 | 16.1 | 0.00 | 0.00 | 0.00 | 35 | 1019.7 |
| 20260502204548 | 8 | 0 | 3.2 | 16.1 | 0.00 | 0.00 | 0.00 | 35 | 1019.8 |
| 20260502203543 | 8 | 0 | 4.8 | 16.1 | 0.00 | 0.00 | 0.00 | 35 | 1019.9 |
| 20260502202520 | 8 | 0 | 3.2 | 12.9 | 0.00 | 0.00 | 0.00 | 35 | 1019.9 |
| 20260502201519 | 8 | 0 | 4.8 | 22.5 | 0.00 | 0.00 | 0.00 | 34 | 1019.9 |
| 20260502200510 | 8 | 0 | 6.4 | 22.5 | 0.00 | 0.00 | 0.00 | 33 | 1020.0 |
| 20260502195518 | 8 | 0 | 3.2 | 16.1 | 0.00 | 0.00 | 0.00 | 35 | 1020.0 |
| 20260502194456 | 8 | 0 | 4.8 | 14.5 | 0.00 | 0.00 | 0.00 | 34 | 1020.2 |
| 20260502193453 | 8 | 0 | 4.8 | 20.9 | 0.00 | 0.00 | 0.00 | 35 | 1020.3 |
| 20260502192507 | 8 | 0 | 3.2 | 20.9 | 0.00 | 0.00 | 0.00 | 36 | 1020.4 |
| 20260502191525 | 8 | 0 | 4.8 | 14.5 | 0.00 | 0.00 | 0.00 | 35 | 1020.3 |
| 20260502190521 | 8 | 0 | 4.8 | 16.1 | 0.00 | 0.00 | 0.00 | 33 | 1020.4 |
| 20260502185538 | 8 | 0 | 3.2 | 19.3 | 0.00 | 0.00 | 0.00 | 33 | 1020.5 |
| 20260502183415 | 8 | 0 | 4.8 | 17.7 | 0.00 | 0.00 | 0.00 | 36 | 1020.3 |
| 20260502181301 | 8 | 0 | 3.2 | 12.9 | 0.00 | 0.00 | 0.00 | 38 | 1020.5 |
| 20260502180255 | 9 | 0 | 3.2 | 12.9 | 0.00 | 0.00 | 0.00 | 36 | 1020.5 |
| 20260502170134 | 8 | 0 | 4.8 | 17.7 | 0.00 | 0.00 | 0.00 | 36 | 1020.8 |
| 20260502164137 | 7 | 0 | 4.8 | 16.1 | 0.00 | 0.00 | 0.00 | 37 | 1020.8 |
| 20260502163146 | 7 | 0 | 6.4 | 24.1 | 0.00 | 0.00 | 0.00 | 35 | 1020.9 |
| 20260502162158 | 8 | 0 | 6.4 | 24.1 | 0.00 | 0.00 | 0.00 | 35 | 1021.1 |
| 20260502151859 | 8 | 0 | 4.8 | 20.9 | 0.00 | 0.00 | 0.00 | 39 | 1020.8 |
| 20260502150857 | 7 | 0 | 4.8 | 20.9 | 0.00 | 0.00 | 0.00 | 42 | 1020.7 |
| 20260502123718 | 4 | 0 | 3.2 | 14.5 | 0.00 | 0.05 | 0.00 | 50 | 1020.4 |
| 20260502122704 | 3 | 0 | 3.2 | 14.5 | 0.00 | 0.05 | 0.00 | 50 | 1020.4 |
| 20260502121710 | 3 | 0 | 3.2 | 11.3 | 0.00 | 0.05 | 0.00 | 51 | 1020.2 |
| 20260502120730 | 2 | 0 | 3.2 | 11.3 | 0.00 | 0.05 | 0.00 | 51 | 1020.1 |
| 20260502115721 | 2 | 0 | 3.2 | 12.9 | 0.00 | 0.05 | 0.00 | 51 | 1019.9 |
| 20260502114712 | 1 | 0 | 3.2 | 12.9 | 0.00 | 0.05 | 0.00 | 52 | 1019.8 |
| 20260502113652 | 1 | 0 | 3.2 | 11.3 | 0.00 | 0.05 | 0.00 | 53 | 1019.8 |
| 20260502112658 | 0 | 0 | 0.0 | 4.8 | 0.00 | 0.05 | 0.00 | 53 | 1019.8 |
| 20260502111640 | 0 | 0 | 0.0 | 4.8 | 0.00 | 0.05 | 0.00 | 53 | 1019.7 |
| 20260502110700 | 0 | 0 | 0.0 | 4.8 | 0.00 | 0.05 | 0.00 | 52 | 1019.7 |
| 20260502105722 | 0 | 0 | 0.0 | 4.8 | 0.00 | 0.05 | 0.00 | 52 | 1019.7 |
| 20260502103637 | 0 | 0 | 0.0 | 3.2 | 0.00 | 0.05 | 0.00 | 53 | 1019.5 |
| 20260502102603 | 0 | 0 | 0.0 | 4.8 | 0.00 | 0.05 | 0.00 | 53 | 1019.5 |
| 20260502101628 | 0 | 0 | 0.0 | 4.8 | 0.00 | 0.05 | 0.00 | 53 | 1019.3 |
| 20260502100602 | 0 | 0 | 0.0 | 6.4 | 0.00 | 0.05 | 0.00 | 53 | 1019.3 |
| 20260502091524 | 1 | 0 | 0.0 | 6.4 | 0.00 | 0.05 | 0.00 | 54 | 1019.5 |
| 20260502090451 | 1 | 0 | 0.0 | 4.8 | 0.00 | 0.05 | 0.00 | 54 | 1019.5 |
| 20260502071253 | 2 | 0 | 0.0 | 3.2 | 0.00 | 0.05 | 0.00 | 51 | 1019.3 |
| 20260502065218 | 2 | 0 | 0.0 | 3.2 | 0.00 | 0.05 | 0.00 | 51 | 1019.6 |
| 20260502064204 | 2 | 0 | 0.0 | 1.6 | 0.00 | 0.05 | 0.00 | 51 | 1019.6 |